Погода в Мозыре

Погода в Мозыре : погода сейчас, прогноз погоды и архив. Всё, что Вы хотите узнать о погоде в Мозыре!

Хотите узнать прогноз погоды в Мозыре? Тогда Вам сюда: Погода в Мозыре

Поиск расширенной информации на нашем сайте:

Другие новости

Новости СМИ2

Главная страница сайта

Новости сайта

03.07.2017

Напоминаем, что на нашем специализированном сайте Метеоцентр.Азия вы можете получить высокодетализированные автоматические прогнозы погоды по пунктам России, СНГ и мира в авиационном формате (включающие направление и скорость ветра, видимость, явления погоды, количество и форму облачности, нижнюю и верхнюю границу облачности).


Погода в Мозыре - сегодня

Время (UTC), дата Ветер
(°,м/с) 
Видим.   Явления Облачность Т
(°С)
Тd
(°С)
f(%) Тe
(°С)
Pmin
(гПа)
dP
(гПа)
Po
(мм)
O2
(г/м3)
Тmin Tmax R s Состояние
почвы
21 19.07.17 100 (В) 10 км    ясно 
+18.2 +9.7 58 +20  1017.1  -0.2  746  280           
00 20.07.17 тихо ()   10 км    3/0 средняя 
[Ac trans]
+15.9 +10.4 70 +18  1016.6  -0.6  746  282           
03 20.07.17 тихо ()   15000 м    3/0 средняя 
[Ac trans]
+14.9 +10.7 76 +17  1015.9  -0.8  745  283           
06 20.07.17 200 (Ю) 20000 м    ясно 
+20.8 +14.1 65 +28  1015  -0.4  745  276  +14.7         
09 20.07.17 180 (Ю) 20000 м    10/0 средняя, верхняя 
[Ac trans|Cs]
+24.4 +14.5 54 +32  1014  -0.7  744  272           
12 20.07.17 тихо ()   15000 м  в посл. час ливневой дождь  10/4 600 м кучево-дожд., средняя 
[Cb cap|Ac As]
+20 +16.5 80 +32  1014.1  -0.2  744  276      0.4     
15 20.07.17 тихо ()   20000 м    8/0 средняя, верхняя 
[Ac trans|Cs]
+21.7 +16.1 70 +33  1012.5  -1.5  743  274      0.6     
18 20.07.17 060 (СВ) 15000 м    3/0 верхняя 
[Cs]
+20.4 +15.9 75 +31  1012.4  -0.1  743  275    +24.8  0.6     
21 20.07.17 090 (В) 10 км    ясно 
+18.6 +15.8 84 +30  1012.8  0.2  743  277           
00 21.07.17 100 (В) 8000 м  дымка  3/0 верхняя 
[Ci fib]
+17 +15.3 90 +27  1012.8  -0.1  743  279           
03 21.07.17 110 (В) 7000 м  дымка  8/0 средняя 
[Ac trans]
+16.4 +15.4 94 +28  1012.2  -0.6  743  279           
06 21.07.17 150 (ЮВ) 20000 м    8/0 средняя 
[Ac und]
+20.8 +15.2 70 +30  1012.5  0.6  743  275  +16.2         
09 21.07.17 160 (Ю) 20000 м    6/3 1000 м средняя 
[Cu med, cong|Ac trans]
+26 +15.3 52 +35  1012.4  0.2  743  270           
12 21.07.17 180 (Ю) 20000 м    8/5 1000 м средняя 
[Cu med, cong|Ac trans]
+28.2 +16.5 49 +40  1012.1  -0.1  743  268           
15 21.07.17 150 (ЮВ) 20000 м    4/3 1000 м средняя 
[Cu med, cong|Ac trans]
+28.6 +16.6 48 +40  1011.4  -0.7  743  267           
18 21.07.17 330 (СЗ) 15000 м    8/0 средняя, верхняя 
[Ac und|Cs]
+25 +18.2 66 +40  1011.5  -0.1  743  270    +29       
21 21.07.17 340 (С) 10 км  зарница  10/3 1000 м кучево-дожд., средняя 
[Cb calv|Ac As]
+23 +17 69 +36  1011.5  -0.2  742  272           
00 22.07.17 020 (С) 5000 м  гроза, ливневой дождь  10/8 600 м кучево-дожд., средняя 
[Cb calv|Ac As]
+17.9 +16.9 94 +31  1011.9  742  277      11     
03 22.07.17 340 (С) 5000 м  дымка{гроза, ливн. осадки}  6/0 средняя, верхняя 
[Ac trans|Ci]
+17.4 +16.9 97 +31  1010.8  -1.1  742  277      12     
06 22.07.17 260 (З) 4200 м  дымка{гроза, ливн. осадки}  9/8 240 м средняя 
[Frnb|Ac und]
+18.3 +17.4 94 +32  1012.7  743  277  +17.3    12     
09 22.07.17 300 (СЗ) 3500 м  дымка  10/10 210 м 
[St]
+18.4 +17.6 95 +33  1013.6  0.9  744  277           
12 22.07.17 310 (СЗ) 15000 м    8/8 300 м 
[Sc]
+20.3 +15.9 76 +31  1014.4  0.9  744  276           
15 22.07.17 300 (СЗ) 20000 м    6/3 600 м средняя 
[Sc|Ac trans]
+22 +15.1 65 +31  1014.9  0.5  745  275           
18 22.07.17 тихо ()   15000 м    3/0 средняя 
[Ac trans]
+18.7 +14 74 +26  1015.8  0.7  745  278    +22.5       
21 22.07.17 тихо ()   10 км    ясно 
+16.3 +13.6 84 +23  1016.6  0.6  746  281           
Время (UTC), дата Ветер
(°,м/с) 
Видим.   Явления Облачность Т
(°С)
Тd
(°С)
f(%) Тe
(°С)
Pmin
(гПа)
dP
(гПа)
Po
(мм)
O2
(г/м3)
Тmin Tmax R s Состояние
почвы

Для получения пояснительной информации подведите курсор к названию столбца.

ПОГОДА в Мозыре - архив

Всё, что Вы хотите узнать о погоде в Мозыре - удобно и подробно!

Выберите нужную дату (начиная с 1 января 2015* года) и нажмите кнопку "Найти".
Будут отображены архивные сводки погоды по пункту Мозырь, начиная с указанной даты.


Отображать данные в формате CSV (для использования в таблицах Excel)


Внимание! Наш архив погоды предназначен исключительно для личного некоммерческого использования в познавательных целях. Если Вам необходимы официальные справки о состоянии погоды (для производственных, юридических, коммерческих и т.п. целей), обращайтесь в органы Росгидромета.

*Примечание: данная дата относится к архиву по метеостанциям СССР (Россия, СНГ, Балтия).
Архив по метеостанциям Зарубежной Европы и Азии (кроме Китая) хранится 10 дней, по другим регионам земного шара (Китай, Африка, Америка, Австралия, Океания) - 1 день.

Мозырь - район местоположения метеостанции


Название, широта, долгота, высота метеостанции:
Мозырь 51.9°ш. 29.2°д. 170 м над ур. моря [Беларусь]

Дополнительная информация

В oтличие oт бoльшинства пoгoдных сайтoв мы публикуем пoдрoбную метеoинфoрмацию в детальнoм прoфессиoнальнoм фoрмате.

Характеристики температуры и влажнoсти вoздуха измеряются на высoте 2 м в тени вдали oт зданий и деревьев.
Скoрoсть ветра измеряется на высoте 10 м (на урoвне рoста челoвека скoрoсть ветра ниже в 1.5-2 раза). Если метеoстанция нахoдится в гoрoде или в лесу, тo скoрoсть ветра занижена на 2-4 м/с пo сравнению с oткрытым местoм. Скoрoсть ветра над акватoриями крупных рек и oзёр, а также на вершинах хoлмoв на 2-5 м/с выше, чем в oбычных услoвиях.
Атмoсфернoе давление в разных тoчках местнoсти мoжет значительнo oтличаться oт давления на метеoстанции, в зависимoсти oт услoвий рельефа (при пoдъёме на 10 м давление пoнижается примернo на 1 мм рт.ст.).